Location: Glencliff
(36.1226°N, 86.7183°W)
Time: 23:19:53
(UTC+00:00)

Resurs 01 Rocket - Pass Details

Date: 25 August 2019
Orbit: 635 x 643 km, 98.0° (Epoch: 21 September)

Event Time Altitude Azimuth Distance (km) Brightness Sun altitude
Exits shadow 03:07:40 23° 250° (WSW) 1,354 3.5 -29.5°
Maximum altitude 03:08:19 24° 264° (W) 1,326 3.6 -29.6°
Drops below altitude 10° 03:11:52 10° 318° (NW) 2,026 5.1 -30.2°
Sets 03:14:27 0° 333° (NNW) 2,939 6.1 -30.5°
